| time (UTC) | temp F | wind direction | speed knots | gust knots | rain 1hr in | rain 24hr in | rain mn in | humidity % | barometer mb |
| 20260507095527 | 54 | 308 | 0.0 | 0.9 | 0.00 | 0.00 | 0.00 | 80 | 1022.2 |
| 20260507095023 | 54 | 299 | 0.0 | 0.0 | 0.00 | 0.00 | 0.00 | 80 | 1022.3 |
| 20260507094519 | 54 | 338 | 0.0 | 0.9 | 0.00 | 0.00 | 0.00 | 79 | 1022.3 |
| 20260507094016 | 54 | 304 | 0.0 | 0.0 | 0.00 | 0.00 | 0.00 | 79 | 1022.4 |
| 20260507093514 | 54 | 292 | 0.0 | 0.9 | 0.00 | 0.00 | 0.00 | 79 | 1022.6 |
| 20260507093013 | 54 | 301 | 0.0 | 0.9 | 0.00 | 0.00 | 0.00 | 79 | 1022.5 |
| 20260507092509 | 54 | 296 | 0.0 | 0.0 | 0.00 | 0.00 | 0.00 | 79 | 1022.6 |
| 20260507092005 | 54 | 299 | 0.0 | 0.0 | 0.00 | 0.00 | 0.00 | 79 | 1022.7 |
| 20260507091502 | 54 | 298 | 0.0 | 0.0 | 0.00 | 0.00 | 0.00 | 79 | 1022.6 |
| 20260507090958 | 54 | 300 | 0.9 | 0.9 | 0.00 | 0.00 | 0.00 | 79 | 1022.7 |
| 20260507090454 | 54 | 323 | 0.0 | 0.0 | 0.00 | 0.00 | 0.00 | 79 | 1022.5 |
| 20260507085950 | 54 | 302 | 0.9 | 0.9 | 0.00 | 0.00 | 0.00 | 79 | 1022.7 |
| 20260507085448 | 54 | 292 | 0.0 | 0.9 | 0.00 | 0.00 | 0.00 | 79 | 1022.6 |
| 20260507084944 | 54 | 297 | 0.0 | 0.0 | 0.00 | 0.00 | 0.00 | 79 | 1022.7 |
| 20260507084441 | 54 | 298 | 0.0 | 0.0 | 0.00 | 0.00 | 0.00 | 79 | 1022.5 |
| 20260507083938 | 54 | 291 | 0.0 | 0.9 | 0.00 | 0.00 | 0.00 | 79 | 1022.5 |
| 20260507083435 | 54 | 302 | 0.0 | 0.0 | 0.00 | 0.00 | 0.00 | 80 | 1022.6 |
| 20260507082931 | 54 | 302 | 0.0 | 0.0 | 0.00 | 0.00 | 0.00 | 80 | 1022.6 |
| 20260507082427 | 54 | 311 | 0.9 | 0.9 | 0.00 | 0.00 | 0.00 | 81 | 1022.7 |
| 20260507081924 | 54 | 297 | 0.0 | 0.0 | 0.00 | 0.00 | 0.00 | 81 | 1022.8 |
| 20260507081420 | 54 | 297 | 0.0 | 0.0 | 0.00 | 0.00 | 0.00 | 80 | 1022.7 |
| 20260507080917 | 55 | 297 | 0.0 | 0.0 | 0.00 | 0.00 | 0.00 | 81 | 1022.6 |
| 20260507080414 | 55 | 288 | 0.0 | 0.9 | 0.00 | 0.00 | 0.00 | 80 | 1022.7 |
| 20260507075909 | 55 | 298 | 0.0 | 0.0 | 0.00 | 0.00 | 0.00 | 81 | 1022.7 |
| 20260507075405 | 55 | 305 | 0.0 | 0.0 | 0.00 | 0.00 | 0.00 | 81 | 1022.8 |
| 20260507074902 | 55 | 304 | 0.9 | 0.9 | 0.00 | 0.00 | 0.00 | 82 | 1022.5 |
| 20260507074358 | 55 | 312 | 0.0 | 0.0 | 0.00 | 0.00 | 0.00 | 81 | 1022.7 |
| 20260507073856 | 55 | 300 | 0.0 | 0.0 | 0.00 | 0.00 | 0.00 | 81 | 1022.7 |
| 20260507073352 | 55 | 301 | 0.0 | 0.9 | 0.00 | 0.00 | 0.00 | 81 | 1022.8 |
| 20260507072849 | 55 | 305 | 0.0 | 0.0 | 0.00 | 0.00 | 0.00 | 81 | 1022.8 |
| 20260507072347 | 55 | 315 | 0.0 | 0.0 | 0.00 | 0.00 | 0.00 | 81 | 1022.5 |
| 20260507071844 | 55 | 306 | 0.0 | 0.0 | 0.00 | 0.00 | 0.00 | 81 | 1022.7 |
| 20260507071342 | 55 | 298 | 0.0 | 0.0 | 0.00 | 0.00 | 0.00 | 80 | 1022.5 |
| 20260507070837 | 55 | 23 | 0.9 | 0.9 | 0.00 | 0.00 | 0.00 | 80 | 1022.6 |
| 20260507070335 | 55 | 253 | 0.9 | 1.7 | 0.00 | 0.00 | 0.00 | 80 | 1022.5 |
| 20260507065832 | 55 | 303 | 0.0 | 0.0 | 0.00 | 0.00 | 0.00 | 80 | 1022.6 |
| 20260507065329 | 55 | 1 | 0.9 | 0.9 | 0.00 | 0.00 | 0.00 | 80 | 1022.3 |
| 20260507064826 | 55 | 308 | 0.0 | 0.9 | 0.00 | 0.00 | 0.00 | 81 | 1022.4 |
| 20260507064324 | 55 | 307 | 0.0 | 0.0 | 0.00 | 0.00 | 0.00 | 81 | 1022.6 |
| 20260507063822 | 55 | 306 | 0.0 | 0.0 | 0.00 | 0.00 | 0.00 | 80 | 1022.4 |
| 20260507063318 | 55 | 303 | 0.0 | 0.0 | 0.00 | 0.00 | 0.00 | 81 | 1022.5 |
| 20260507062815 | 55 | 289 | 0.0 | 0.9 | 0.00 | 0.00 | 0.00 | 81 | 1022.3 |
| 20260507062312 | 55 | 286 | 0.9 | 0.9 | 0.00 | 0.00 | 0.00 | 81 | 1022.6 |
| 20260507061810 | 55 | 266 | 0.9 | 0.9 | 0.00 | 0.00 | 0.00 | 81 | 1022.6 |
| 20260507061308 | 55 | 284 | 0.0 | 0.9 | 0.00 | 0.00 | 0.00 | 82 | 1022.5 |
| 20260507060806 | 55 | 305 | 0.0 | 0.0 | 0.00 | 0.00 | 0.00 | 82 | 1022.6 |
| 20260507060302 | 55 | 290 | 1.7 | 1.7 | 0.00 | 0.00 | 0.00 | 82 | 1022.6 |
| 20260507055759 | 55 | 290 | 0.9 | 1.7 | 0.00 | 0.00 | 0.00 | 82 | 1022.6 |
| 20260507055254 | 55 | 319 | 0.9 | 0.9 | 0.00 | 0.00 | 0.00 | 82 | 1022.6 |
| 20260507054750 | 55 | 287 | 0.9 | 0.9 | 0.00 | 0.00 | 0.00 | 82 | 1022.4 |
| 20260507054247 | 55 | 303 | 0.0 | 0.9 | 0.00 | 0.00 | 0.00 | 82 | 1022.6 |
| 20260507053744 | 56 | 320 | 0.9 | 0.9 | 0.00 | 0.00 | 0.00 | 82 | 1022.5 |
| 20260507053242 | 56 | 345 | 0.0 | 0.9 | 0.00 | 0.00 | 0.00 | 82 | 1022.5 |
| 20260507052741 | 56 | 325 | 0.9 | 0.9 | 0.00 | 0.00 | 0.00 | 81 | 1022.6 |
| 20260507052237 | 56 | 10 | 0.9 | 0.9 | 0.00 | 0.00 | 0.00 | 81 | 1022.3 |
| 20260507051735 | 56 | 275 | 0.9 | 1.7 | 0.00 | 0.00 | 0.00 | 81 | 1022.4 |
| 20260507051231 | 56 | 317 | 1.7 | 1.7 | 0.00 | 0.00 | 0.00 | 81 | 1022.6 |
| 20260507050728 | 56 | 292 | 0.0 | 0.9 | 0.00 | 0.00 | 0.00 | 81 | 1022.3 |
| 20260507050226 | 57 | 109 | 0.9 | 0.9 | 0.00 | 0.00 | 0.00 | 80 | 1022.5 |
| 20260507045722 | 57 | 206 | 0.9 | 1.7 | 0.00 | 0.00 | 0.00 | 80 | 1022.4 |
| 20260507045218 | 57 | 310 | 0.9 | 0.9 | 0.00 | 0.00 | 0.00 | 80 | 1022.6 |
| 20260507044716 | 57 | 294 | 0.9 | 1.7 | 0.00 | 0.00 | 0.00 | 80 | 1022.6 |
| 20260507044212 | 57 | 1 | 0.0 | 0.9 | 0.00 | 0.00 | 0.00 | 80 | 1022.4 |
| 20260507043708 | 57 | 282 | 0.9 | 1.7 | 0.00 | 0.00 | 0.00 | 80 | 1022.6 |
| 20260507043205 | 57 | 325 | 1.7 | 2.6 | 0.00 | 0.00 | 0.00 | 80 | 1022.3 |
| 20260507042702 | 57 | 305 | 1.7 | 2.6 | 0.00 | 0.00 | 0.00 | 79 | 1022.2 |
| 20260507042156 | 57 | 328 | 0.0 | 0.9 | 0.00 | 0.00 | 0.00 | 79 | 1022.2 |
| 20260507041654 | 58 | 310 | 0.9 | 1.7 | 0.00 | 0.00 | 0.00 | 79 | 1022.2 |
| 20260507041150 | 58 | 308 | 0.9 | 0.9 | 0.00 | 0.00 | 0.00 | 79 | 1022.2 |
| 20260507040648 | 58 | 290 | 0.0 | 0.0 | 0.00 | 0.00 | 0.00 | 79 | 1022.3 |
| 20260507040144 | 58 | 267 | 1.7 | 1.7 | 0.00 | 0.00 | 0.00 | 79 | 1022.3 |
| 20260507035639 | 58 | 268 | 0.9 | 1.7 | 0.00 | 0.00 | 0.00 | 79 | 1021.9 |
| 20260507035136 | 58 | 300 | 0.9 | 1.7 | 0.00 | 0.00 | 0.00 | 78 | 1021.9 |
| 20260507034633 | 59 | 308 | 1.7 | 1.7 | 0.00 | 0.00 | 0.00 | 78 | 1021.8 |
| 20260507034131 | 59 | 296 | 0.0 | 0.0 | 0.00 | 0.00 | 0.00 | 78 | 1021.9 |
| 20260507033629 | 59 | 151 | 1.7 | 1.7 | 0.00 | 0.00 | 0.00 | 78 | 1021.8 |
| 20260507033126 | 59 | 296 | 0.9 | 1.7 | 0.00 | 0.00 | 0.00 | 78 | 1021.8 |
| 20260507032623 | 59 | 332 | 0.0 | 0.0 | 0.00 | 0.00 | 0.00 | 79 | 1021.6 |
| 20260507032119 | 59 | 40 | 0.0 | 0.9 | 0.00 | 0.00 | 0.00 | 79 | 1021.3 |
| 20260507031616 | 59 | 297 | 0.0 | 0.0 | 0.00 | 0.00 | 0.00 | 79 | 1021.3 |
| 20260507031112 | 60 | 325 | 0.9 | 0.9 | 0.00 | 0.00 | 0.00 | 78 | 1021.4 |
| 20260507030609 | 60 | 299 | 0.0 | 0.9 | 0.00 | 0.00 | 0.00 | 78 | 1021.3 |
| 20260507030107 | 60 | 298 | 0.9 | 0.9 | 0.00 | 0.00 | 0.00 | 79 | 1021.2 |
| 20260507025604 | 60 | 301 | 0.0 | 0.0 | 0.00 | 0.00 | 0.00 | 79 | 1021.1 |
| 20260507025101 | 60 | 290 | 0.0 | 0.0 | 0.00 | 0.00 | 0.00 | 80 | 1021.1 |
| 20260507024559 | 60 | 296 | 0.0 | 0.0 | 0.00 | 0.00 | 0.00 | 79 | 1020.9 |
| 20260507024056 | 60 | 310 | 0.0 | 0.0 | 0.00 | 0.00 | 0.00 | 78 | 1021.0 |
| 20260507023551 | 61 | 286 | 0.0 | 0.9 | 0.00 | 0.00 | 0.00 | 77 | 1021.0 |
| 20260507023049 | 61 | 299 | 0.0 | 0.0 | 0.00 | 0.00 | 0.00 | 77 | 1021.1 |
| 20260507022546 | 61 | 324 | 0.9 | 0.9 | 0.00 | 0.00 | 0.00 | 77 | 1021.1 |
| 20260507022041 | 61 | 298 | 0.0 | 0.0 | 0.00 | 0.00 | 0.00 | 76 | 1021.1 |
| 20260507021537 | 62 | 293 | 0.0 | 0.0 | 0.00 | 0.00 | 0.00 | 75 | 1021.0 |
| 20260507021034 | 63 | 290 | 0.9 | 0.9 | 0.00 | 0.00 | 0.00 | 74 | 1021.2 |
| 20260507020531 | 63 | 257 | 0.0 | 0.0 | 0.00 | 0.00 | 0.00 | 74 | 1021.4 |
| 20260507020028 | 63 | 323 | 0.0 | 0.9 | 0.00 | 0.00 | 0.00 | 74 | 1021.1 |
| 20260507015526 | 63 | 300 | 0.9 | 1.7 | 0.00 | 0.00 | 0.00 | 75 | 1020.8 |
| 20260507015023 | 63 | 290 | 0.0 | 0.0 | 0.00 | 0.00 | 0.00 | 74 | 1021.1 |
| 20260507014520 | 63 | 302 | 0.0 | 0.9 | 0.00 | 0.00 | 0.00 | 75 | 1021.0 |
| 20260507014015 | 63 | 297 | 1.7 | 2.6 | 0.00 | 0.00 | 0.00 | 74 | 1021.2 |
| 20260507013512 | 63 | 346 | 0.9 | 0.9 | 0.00 | 0.00 | 0.00 | 74 | 1020.9 |
| 20260507013010 | 64 | 292 | 0.9 | 0.9 | 0.00 | 0.00 | 0.00 | 73 | 1021.2 |
| 20260507012507 | 64 | 293 | 2.6 | 4.3 | 0.00 | 0.00 | 0.00 | 73 | 1020.9 |
| 20260507012003 | 64 | 294 | 0.9 | 1.7 | 0.00 | 0.00 | 0.00 | 72 | 1021.1 |
| 20260507011500 | 64 | 322 | 0.9 | 0.9 | 0.00 | 0.00 | 0.00 | 73 | 1021.0 |
| 20260507010956 | 65 | 302 | 0.9 | 0.9 | 0.00 | 0.00 | 0.00 | 72 | 1021.0 |
| 20260507010450 | 65 | 309 | 0.9 | 0.9 | 0.00 | 0.00 | 0.00 | 72 | 1020.9 |
| 20260507005948 | 65 | 264 | 1.7 | 2.6 | 0.00 | 0.00 | 0.00 | 72 | 1020.9 |
| 20260507005445 | 66 | 241 | 1.7 | 2.6 | 0.00 | 0.00 | 0.00 | 72 | 1020.9 |
| 20260507004941 | 66 | 280 | 0.9 | 0.9 | 0.00 | 0.00 | 0.00 | 71 | 1020.9 |
| 20260507004438 | 67 | 297 | 0.9 | 1.7 | 0.00 | 0.00 | 0.00 | 72 | 1020.8 |
| 20260507003936 | 67 | 301 | 0.9 | 0.9 | 0.00 | 0.00 | 0.00 | 72 | 1020.6 |
| 20260507003431 | 67 | 282 | 0.9 | 1.7 | 0.00 | 0.00 | 0.00 | 71 | 1020.6 |
| 20260507002926 | 68 | 293 | 0.9 | 0.9 | 0.00 | 0.00 | 0.00 | 71 | 1020.7 |
| 20260507002422 | 68 | 127 | 1.7 | 4.3 | 0.00 | 0.00 | 0.00 | 71 | 1020.6 |
| 20260507001920 | 68 | 299 | 0.9 | 1.7 | 0.00 | 0.00 | 0.00 | 70 | 1020.8 |
| 20260507001416 | 69 | 304 | 0.9 | 0.9 | 0.00 | 0.00 | 0.00 | 70 | 1020.6 |
| 20260507000914 | 68 | 289 | 0.0 | 0.9 | 0.00 | 0.00 | 0.00 | 71 | 1020.6 |
| 20260507000409 | 69 | 301 | 0.9 | 1.7 | 0.00 | 0.00 | 0.00 | 69 | 1020.5 |
| 20260506235905 | 68 | 312 | 1.7 | 1.7 | 0.00 | 0.00 | 0.00 | 68 | 1020.8 |
| 20260506235403 | 68 | 306 | 0.0 | 0.0 | 0.00 | 0.00 | 0.00 | 69 | 1020.6 |
| 20260506234858 | 69 | 298 | 0.0 | 0.9 | 0.00 | 0.00 | 0.00 | 67 | 1020.5 |
| 20260506234356 | 69 | 302 | 1.7 | 1.7 | 0.00 | 0.00 | 0.00 | 67 | 1020.5 |
| 20260506233853 | 69 | 100 | 0.9 | 1.7 | 0.00 | 0.00 | 0.00 | 66 | 1020.7 |
| 20260506233349 | 68 | 21 | 0.9 | 1.7 | 0.00 | 0.00 | 0.00 | 67 | 1020.8 |
| 20260506232846 | 68 | 304 | 0.0 | 0.9 | 0.00 | 0.00 | 0.00 | 67 | 1020.7 |
| 20260506232342 | 69 | 315 | 0.0 | 0.9 | 0.00 | 0.00 | 0.00 | 67 | 1020.5 |
| 20260506231838 | 69 | 313 | 0.0 | 0.0 | 0.00 | 0.00 | 0.00 | 69 | 1020.5 |
| 20260506231336 | 68 | 295 | 0.9 | 0.9 | 0.00 | 0.00 | 0.00 | 69 | 1020.5 |
| 20260506230833 | 68 | 307 | 1.7 | 1.7 | 0.00 | 0.00 | 0.00 | 67 | 1021.0 |
| 20260506230330 | 68 | 309 | 0.0 | 0.0 | 0.00 | 0.00 | 0.00 | 71 | 1021.0 |
| 20260506225826 | 67 | 1 | 0.9 | 0.9 | 0.00 | 0.00 | 0.00 | 68 | 1021.0 |
| 20260506225324 | 68 | 255 | 0.9 | 0.9 | 0.00 | 0.00 | 0.00 | 68 | 1021.0 |
| 20260506224821 | 68 | 302 | 0.9 | 0.9 | 0.00 | 0.00 | 0.00 | 71 | 1021.0 |
| 20260506224318 | 68 | 188 | 0.0 | 0.9 | 0.00 | 0.00 | 0.00 | 68 | 1021.0 |
| 20260506223814 | 68 | 307 | 0.9 | 1.7 | 0.00 | 0.00 | 0.00 | 68 | 1021.1 |
| 20260506223309 | 67 | 312 | 0.0 | 0.9 | 0.00 | 0.00 | 0.00 | 68 | 1021.2 |
| 20260506222807 | 67 | 321 | 0.0 | 0.0 | 0.00 | 0.00 | 0.00 | 69 | 1021.2 |
| 20260506222305 | 67 | 150 | 1.7 | 2.6 | 0.00 | 0.00 | 0.00 | 69 | 1021.2 |
| 20260506221800 | 67 | 336 | 0.9 | 0.9 | 0.00 | 0.00 | 0.00 | 70 | 1021.1 |
| 20260506221258 | 66 | 305 | 0.0 | 0.9 | 0.00 | 0.00 | 0.00 | 72 | 1021.2 |
| 20260506220755 | 67 | 301 | 1.7 | 1.7 | 0.00 | 0.00 | 0.00 | 71 | 1021.3 |
| 20260506220249 | 67 | 310 | 0.0 | 0.9 | 0.00 | 0.00 | 0.00 | 73 | 1021.5 |
| 20260506215747 | 67 | 304 | 0.9 | 0.9 | 0.00 | 0.00 | 0.00 | 72 | 1021.3 |
| 20260506215243 | 68 | 308 | 0.0 | 0.0 | 0.00 | 0.00 | 0.00 | 71 | 1021.2 |
| 20260506214739 | 68 | 309 | 0.0 | 0.9 | 0.00 | 0.00 | 0.00 | 73 | 1021.2 |
| 20260506214236 | 67 | 306 | 0.9 | 0.9 | 0.00 | 0.00 | 0.00 | 71 | 1021.0 |
| 20260506213735 | 66 | 351 | 0.9 | 0.9 | 0.00 | 0.00 | 0.00 | 72 | 1021.2 |
| 20260506213231 | 66 | 344 | 0.0 | 0.9 | 0.00 | 0.00 | 0.00 | 73 | 1021.4 |
| 20260506212729 | 65 | 302 | 0.9 | 0.9 | 0.00 | 0.00 | 0.00 | 73 | 1021.5 |
| 20260506212224 | 65 | 337 | 0.9 | 0.9 | 0.00 | 0.00 | 0.00 | 73 | 1021.5 |
| 20260506211719 | 65 | 358 | 0.0 | 0.0 | 0.00 | 0.00 | 0.00 | 76 | 1021.6 |
| 20260506211216 | 65 | 24 | 0.0 | 0.9 | 0.00 | 0.00 | 0.00 | 75 | 1021.9 |
| 20260506210713 | 65 | 217 | 0.9 | 1.7 | 0.00 | 0.00 | 0.00 | 75 | 1021.6 |
| 20260506210210 | 64 | 299 | 0.0 | 0.9 | 0.00 | 0.00 | 0.00 | 75 | 1021.6 |
| 20260506205707 | 66 | 306 | 0.0 | 0.0 | 0.00 | 0.00 | 0.00 | 77 | 1022.0 |
| 20260506205202 | 65 | 232 | 0.9 | 1.7 | 0.00 | 0.00 | 0.00 | 73 | 1021.9 |
| 20260506204659 | 65 | 340 | 0.0 | 0.9 | 0.00 | 0.00 | 0.00 | 74 | 1021.8 |
| 20260506204156 | 66 | 299 | 0.0 | 0.0 | 0.00 | 0.00 | 0.00 | 72 | 1021.8 |
| 20260506203655 | 66 | 334 | 0.9 | 0.9 | 0.00 | 0.00 | 0.00 | 74 | 1021.8 |
| 20260506203151 | 65 | 330 | 0.0 | 0.9 | 0.00 | 0.00 | 0.00 | 77 | 1021.8 |
| 20260506202649 | 65 | 92 | 1.7 | 1.7 | 0.00 | 0.00 | 0.00 | 75 | 1021.8 |
| 20260506202145 | 65 | 313 | 0.0 | 0.9 | 0.00 | 0.00 | 0.00 | 76 | 1021.8 |
| 20260506201642 | 66 | 313 | 2.6 | 2.6 | 0.00 | 0.00 | 0.00 | 73 | 1021.8 |
| 20260506201138 | 67 | 310 | 0.0 | 0.0 | 0.00 | 0.00 | 0.00 | 73 | 1021.9 |
| 20260506200635 | 66 | 310 | 0.0 | 0.0 | 0.00 | 0.00 | 0.00 | 74 | 1021.8 |
| 20260506200132 | 65 | 305 | 0.0 | 0.0 | 0.00 | 0.00 | 0.00 | 75 | 1021.9 |
| 20260506195629 | 64 | 300 | 0.0 | 0.0 | 0.00 | 0.00 | 0.00 | 77 | 1021.9 |
| 20260506195125 | 65 | 307 | 0.9 | 0.9 | 0.00 | 0.00 | 0.00 | 76 | 1022.1 |
| 20260506194623 | 64 | 302 | 0.0 | 0.9 | 0.00 | 0.00 | 0.00 | 76 | 1022.1 |
| 20260506194119 | 64 | 316 | 0.0 | 0.0 | 0.00 | 0.00 | 0.00 | 77 | 1022.2 |
| 20260506193617 | 63 | 300 | 0.9 | 1.7 | 0.00 | 0.00 | 0.00 | 78 | 1022.2 |
| 20260506193114 | 63 | 302 | 0.0 | 0.0 | 0.00 | 0.00 | 0.00 | 79 | 1022.3 |
| 20260506192611 | 63 | 310 | 0.9 | 1.7 | 0.00 | 0.00 | 0.00 | 78 | 1022.1 |
| 20260506192106 | 63 | 304 | 0.0 | 0.0 | 0.00 | 0.00 | 0.00 | 78 | 1022.2 |
| 20260506191603 | 62 | 310 | 0.9 | 0.9 | 0.00 | 0.00 | 0.00 | 79 | 1022.0 |
| 20260506191059 | 62 | 326 | 0.0 | 0.0 | 0.00 | 0.00 | 0.00 | 81 | 1022.0 |
| 20260506190557 | 62 | 324 | 0.0 | 0.0 | 0.00 | 0.00 | 0.00 | 79 | 1022.1 |
| 20260506190053 | 62 | 316 | 0.9 | 1.7 | 0.00 | 0.00 | 0.00 | 82 | 1022.2 |
| 20260506185551 | 61 | 344 | 0.9 | 0.9 | 0.00 | 0.00 | 0.00 | 81 | 1022.1 |
| 20260506185047 | 62 | 0 | 0.0 | 0.0 | 0.00 | 0.00 | 0.00 | 81 | 1022.0 |
| 20260506184545 | 62 | 297 | 0.0 | 0.9 | 0.00 | 0.00 | 0.00 | 82 | 1022.1 |
| 20260506184042 | 62 | 349 | 0.9 | 0.9 | 0.00 | 0.00 | 0.00 | 81 | 1022.1 |
| 20260506183537 | 62 | 300 | 0.0 | 0.0 | 0.00 | 0.00 | 0.00 | 81 | 1022.0 |
| 20260506183034 | 61 | 309 | 0.9 | 0.9 | 0.00 | 0.00 | 0.00 | 83 | 1022.0 |
| 20260506182532 | 61 | 318 | 2.6 | 2.6 | 0.00 | 0.00 | 0.00 | 82 | 1022.0 |
| 20260506182029 | 61 | 302 | 0.0 | 0.0 | 0.00 | 0.00 | 0.00 | 83 | 1022.1 |
| 20260506181527 | 61 | 290 | 0.0 | 0.9 | 0.00 | 0.00 | 0.00 | 83 | 1022.0 |
| 20260506181023 | 61 | 310 | 0.0 | 0.0 | 0.00 | 0.00 | 0.00 | 83 | 1022.0 |
| 20260506180520 | 60 | 306 | 0.0 | 0.0 | 0.00 | 0.00 | 0.00 | 84 | 1022.2 |
| 20260506180016 | 60 | 325 | 0.9 | 0.9 | 0.00 | 0.00 | 0.00 | 85 | 1022.0 |
| 20260506175513 | 59 | 331 | 2.6 | 2.6 | 0.00 | 0.00 | 0.00 | 85 | 1022.2 |
| 20260506175009 | 59 | 314 | 0.0 | 0.9 | 0.00 | 0.00 | 0.00 | 85 | 1021.8 |
| 20260506174508 | 59 | 307 | 0.9 | 1.7 | 0.00 | 0.00 | 0.00 | 85 | 1022.0 |
| 20260506174004 | 59 | 303 | 0.9 | 1.7 | 0.00 | 0.00 | 0.00 | 84 | 1021.9 |
| 20260506173502 | 59 | 312 | 0.9 | 0.9 | 0.00 | 0.00 | 0.00 | 85 | 1021.9 |
| 20260506172958 | 59 | 318 | 0.0 | 0.0 | 0.00 | 0.00 | 0.00 | 86 | 1021.8 |
| 20260506172456 | 59 | 317 | 0.0 | 0.0 | 0.00 | 0.00 | 0.00 | 85 | 1021.9 |
| 20260506171952 | 59 | 314 | 0.0 | 0.0 | 0.00 | 0.00 | 0.00 | 84 | 1021.9 |
| 20260506171449 | 59 | 309 | 0.9 | 0.9 | 0.00 | 0.00 | 0.00 | 85 | 1022.0 |
| 20260506170947 | 59 | 307 | 0.0 | 0.0 | 0.00 | 0.00 | 0.00 | 85 | 1021.8 |
| 20260506170443 | 58 | 300 | 0.0 | 0.0 | 0.00 | 0.00 | 0.00 | 86 | 1021.9 |
| 20260506165936 | 58 | 305 | 0.0 | 0.9 | 0.00 | 0.00 | 0.00 | 86 | 1022.0 |
| 20260506165435 | 59 | 309 | 0.9 | 0.9 | 0.00 | 0.00 | 0.00 | 85 | 1022.0 |
| 20260506164930 | 59 | 303 | 0.0 | 0.0 | 0.00 | 0.00 | 0.00 | 85 | 1021.8 |
| 20260506164427 | 59 | 301 | 0.0 | 0.0 | 0.00 | 0.00 | 0.00 | 85 | 1021.9 |
| 20260506163926 | 59 | 311 | 0.9 | 0.9 | 0.00 | 0.00 | 0.00 | 85 | 1021.8 |
| 20260506163425 | 59 | 313 | 0.0 | 0.0 | 0.00 | 0.00 | 0.00 | 85 | 1021.9 |
| 20260506162915 | 59 | 310 | 0.0 | 0.0 | 0.00 | 0.00 | 0.00 | 84 | 1021.8 |
| 20260506162413 | 59 | 308 | 0.9 | 0.9 | 0.00 | 0.00 | 0.00 | 84 | 1021.5 |
| 20260506161910 | 58 | 299 | 0.0 | 0.0 | 0.00 | 0.00 | 0.00 | 85 | 1021.5 |
| 20260506161408 | 58 | 325 | 0.0 | 0.9 | 0.00 | 0.00 | 0.00 | 85 | 1021.8 |
| 20260506160905 | 58 | 313 | 0.0 | 0.0 | 0.00 | 0.00 | 0.00 | 84 | 1021.8 |
| 20260506160402 | 58 | 326 | 0.0 | 0.0 | 0.00 | 0.00 | 0.00 | 85 | 1021.2 |
| 20260506155900 | 59 | 304 | 0.0 | 0.0 | 0.00 | 0.00 | 0.00 | 84 | 1021.3 |
| 20260506155357 | 59 | 311 | 0.0 | 0.0 | 0.00 | 0.00 | 0.00 | 84 | 1021.3 |
| 20260506153519 | 56 | 278 | 0.9 | 0.9 | 0.00 | 0.00 | 0.00 | 88 | 1021.3 |
| 20260506153017 | 56 | 5 | 0.9 | 0.9 | 0.00 | 0.00 | 0.00 | 88 | 1022.0 |
| 20260506152513 | 56 | 304 | 0.0 | 0.9 | 0.00 | 0.00 | 0.00 | 88 | 1021.8 |
| 20260506152012 | 57 | 328 | 0.0 | 0.9 | 0.00 | 0.00 | 0.00 | 89 | 1021.9 |
| 20260506151509 | 57 | 309 | 0.0 | 0.0 | 0.00 | 0.00 | 0.00 | 89 | 1021.9 |
| 20260506151006 | 57 | 307 | 0.0 | 0.9 | 0.00 | 0.00 | 0.00 | 88 | 1021.9 |
| 20260506150502 | 57 | 308 | 0.0 | 0.0 | 0.00 | 0.00 | 0.00 | 88 | 1021.8 |
| 20260506145959 | 57 | 316 | 0.0 | 0.0 | 0.00 | 0.00 | 0.00 | 88 | 1021.8 |
| 20260506145455 | 57 | 313 | 0.0 | 0.0 | 0.00 | 0.00 | 0.00 | 88 | 1021.5 |
| 20260506144953 | 57 | 293 | 0.9 | 0.9 | 0.00 | 0.00 | 0.00 | 88 | 1021.4 |
| 20260506144450 | 57 | 306 | 0.0 | 0.0 | 0.00 | 0.00 | 0.00 | 89 | 1021.8 |
| 20260506143948 | 57 | 308 | 0.0 | 0.0 | 0.00 | 0.00 | 0.00 | 89 | 1021.6 |
| 20260506143444 | 57 | 291 | 0.0 | 0.0 | 0.00 | 0.00 | 0.00 | 89 | 1021.1 |
| 20260506142943 | 57 | 292 | 0.0 | 0.0 | 0.00 | 0.00 | 0.00 | 89 | 1021.3 |
| 20260506142441 | 57 | 306 | 0.9 | 0.9 | 0.00 | 0.00 | 0.00 | 88 | 1021.1 |
| 20260506141939 | 57 | 354 | 0.9 | 0.9 | 0.00 | 0.00 | 0.00 | 88 | 1020.9 |
| 20260506141436 | 57 | 311 | 0.0 | 0.0 | 0.00 | 0.00 | 0.00 | 89 | 1020.8 |
| 20260506140935 | 57 | 310 | 0.0 | 0.0 | 0.00 | 0.00 | 0.00 | 89 | 1020.8 |
| 20260506140431 | 57 | 310 | 0.0 | 0.0 | 0.00 | 0.00 | 0.00 | 89 | 1021.1 |
| 20260506135928 | 57 | 318 | 0.0 | 0.0 | 0.00 | 0.00 | 0.00 | 90 | 1020.8 |
| 20260506135425 | 57 | 318 | 0.0 | 0.0 | 0.00 | 0.00 | 0.00 | 90 | 1020.9 |
| 20260506134922 | 57 | 318 | 0.0 | 0.0 | 0.00 | 0.00 | 0.00 | 90 | 1020.7 |
| 20260506134417 | 56 | 317 | 0.0 | 0.0 | 0.00 | 0.00 | 0.00 | 90 | 1020.9 |
| 20260506133915 | 56 | 317 | 0.0 | 0.0 | 0.00 | 0.00 | 0.00 | 90 | 1020.5 |
| 20260506133411 | 56 | 317 | 0.0 | 0.0 | 0.00 | 0.00 | 0.00 | 90 | 1020.5 |
| 20260506132908 | 56 | 317 | 0.0 | 0.0 | 0.00 | 0.00 | 0.00 | 90 | 1020.6 |
| 20260506132405 | 56 | 318 | 0.0 | 0.0 | 0.00 | 0.00 | 0.00 | 90 | 1020.7 |
| 20260506131904 | 56 | 318 | 0.9 | 0.9 | 0.00 | 0.00 | 0.00 | 90 | 1020.7 |
| 20260506131359 | 56 | 316 | 0.0 | 0.0 | 0.00 | 0.00 | 0.00 | 91 | 1020.5 |
| 20260506130856 | 56 | 304 | 0.0 | 0.0 | 0.00 | 0.00 | 0.00 | 90 | 1020.5 |
| 20260506130352 | 56 | 304 | 0.0 | 0.0 | 0.00 | 0.00 | 0.00 | 90 | 1020.5 |
| 20260506125851 | 56 | 304 | 0.0 | 0.0 | 0.00 | 0.00 | 0.00 | 90 | 1020.4 |
| 20260506125349 | 56 | 304 | 0.0 | 0.0 | 0.00 | 0.00 | 0.00 | 90 | 1020.4 |
| 20260506124847 | 56 | 303 | 0.0 | 0.0 | 0.00 | 0.00 | 0.00 | 90 | 1020.4 |
| 20260506124343 | 56 | 305 | 0.0 | 0.0 | 0.00 | 0.00 | 0.00 | 90 | 1020.2 |
| 20260506123841 | 56 | 318 | 0.0 | 0.0 | 0.00 | 0.00 | 0.00 | 90 | 1020.3 |
| 20260506123339 | 56 | 301 | 0.0 | 0.0 | 0.00 | 0.00 | 0.00 | 90 | 1020.4 |
| 20260506122836 | 56 | 301 | 0.0 | 0.0 | 0.00 | 0.00 | 0.00 | 90 | 1020.2 |
| 20260506122333 | 56 | 302 | 0.0 | 0.0 | 0.00 | 0.00 | 0.00 | 89 | 1020.5 |
| 20260506121831 | 56 | 303 | 0.0 | 0.0 | 0.00 | 0.00 | 0.00 | 89 | 1020.2 |
| 20260506121328 | 56 | 300 | 0.0 | 0.0 | 0.00 | 0.00 | 0.00 | 89 | 1020.5 |
| 20260506120825 | 56 | 298 | 0.0 | 0.0 | 0.00 | 0.00 | 0.00 | 89 | 1020.3 |
| 20260506120323 | 56 | 303 | 0.0 | 0.0 | 0.00 | 0.00 | 0.00 | 89 | 1020.4 |
| 20260506115820 | 56 | 301 | 0.0 | 0.0 | 0.00 | 0.00 | 0.00 | 89 | 1020.1 |
| 20260506115318 | 56 | 301 | 0.0 | 0.0 | 0.00 | 0.00 | 0.00 | 89 | 1020.0 |
| 20260506114816 | 57 | 304 | 0.0 | 0.0 | 0.00 | 0.00 | 0.00 | 88 | 1019.9 |
| 20260506114314 | 57 | 323 | 0.9 | 0.9 | 0.00 | 0.00 | 0.00 | 88 | 1019.9 |
| 20260506113812 | 57 | 317 | 0.0 | 0.0 | 0.00 | 0.00 | 0.00 | 88 | 1019.8 |
| 20260506113309 | 57 | 299 | 0.0 | 0.9 | 0.00 | 0.00 | 0.00 | 88 | 1019.9 |
| 20260506112805 | 57 | 318 | 0.0 | 0.0 | 0.00 | 0.00 | 0.00 | 88 | 1020.0 |
| 20260506112305 | 57 | 306 | 0.0 | 0.0 | 0.00 | 0.00 | 0.00 | 88 | 1020.0 |
| 20260506111800 | 57 | 306 | 0.0 | 0.0 | 0.00 | 0.00 | 0.00 | 87 | 1019.8 |
| 20260506111258 | 57 | 299 | 0.0 | 0.9 | 0.00 | 0.00 | 0.00 | 87 | 1019.8 |
| 20260506110755 | 57 | 305 | 0.0 | 0.0 | 0.00 | 0.00 | 0.00 | 87 | 1019.9 |
| 20260506110252 | 57 | 307 | 0.0 | 0.0 | 0.00 | 0.00 | 0.00 | 87 | 1019.7 |
| 20260506105749 | 57 | 292 | 0.0 | 0.0 | 0.00 | 0.00 | 0.00 | 87 | 1019.4 |
| 20260506105246 | 57 | 309 | 0.0 | 0.0 | 0.00 | 0.00 | 0.00 | 87 | 1019.6 |
| 20260506104743 | 57 | 311 | 0.0 | 0.0 | 0.00 | 0.00 | 0.00 | 87 | 1019.3 |
| 20260506104241 | 57 | 283 | 0.0 | 0.9 | 0.00 | 0.00 | 0.00 | 87 | 1019.3 |
| 20260506103738 | 57 | 297 | 0.0 | 0.0 | 0.00 | 0.00 | 0.00 | 87 | 1019.1 |
| 20260506103235 | 57 | 312 | 0.0 | 0.0 | 0.00 | 0.00 | 0.00 | 87 | 1018.9 |
| 20260506102733 | 57 | 299 | 0.0 | 0.0 | 0.00 | 0.00 | 0.00 | 87 | 1019.3 |
| 20260506102231 | 57 | 311 | 0.0 | 0.0 | 0.00 | 0.00 | 0.00 | 87 | 1019.1 |
| 20260506101727 | 57 | 309 | 0.0 | 0.0 | 0.00 | 0.00 | 0.00 | 87 | 1018.9 |
| 20260506101224 | 57 | 307 | 0.0 | 0.0 | 0.00 | 0.00 | 0.00 | 87 | 1018.8 |
| 20260506100722 | 57 | 311 | 0.0 | 0.0 | 0.00 | 0.00 | 0.00 | 86 | 1019.0 |
| 20260506100220 | 57 | 300 | 0.0 | 0.0 | 0.00 | 0.00 | 0.00 | 87 | 1018.9 |
| 20260506095718 | 57 | 294 | 0.0 | 0.9 | 0.00 | 0.00 | 0.00 | 87 | 1019.0 |